Volver al catálogo

OPS 4682 DEB

ActivoPO
NORAD 38381·DEBRIS·🇺🇸 United States

Lanzado Apr 3, 1965 desde Vandenberg Space Force Base

Loading…

Próximos Pases (próximas 24 horas)

TLE

ActualizadoSource: Space-Track

Época: Sep 14, 2026, 07:39 UTC

1 38381U 65027CJ  26257.31905506  .00000416  00000-0  13532-2 0  9991
2 38381  90.2624  20.4854 0019255   5.9941 354.1408 13.00259274597673

Sigue OPS 4682 DEB en tiempo real con AllMySat

Download on the App Store